Regional Weather Roundup
Issued by NWS

Home | Current Version | Previous Version | Text Only | Print | Product List | Glossary Off
Versions: 1 2 3 4 5 6 7 8 9 10 11 12 13 14 15 16 17 18 19 20 21 22 23 24 25 26 27 28

000
ASUS45 KCYS 190110
RWRWY

WYOMING REGIONAL WEATHER ROUNDUP
NATIONAL WEATHER SERVICE CHEYENNE WY
700 PM MDT FRI APR 18 2014

NOTE:  "FAIR" INDICATES FEW OR NO CLOUDS BELOW 12,000 FEET
WITH NO SIGNIFICANT WEATHER AND/OR OBSTRUCTIONS TO VISIBILITY.

WYZ001-190200-
YELLOWSTONE NATIONAL PARK

CITY           SKY/WX    TMP DP  RH WIND       PRES   REMARKS
LK YELLOWSTONE   N/A     38  25  59 W9G22     29.91S WCI  31
W YELLOWSTONE  NOT AVBL

$$
WYZ002>013-054>058-071-098>099-190200-
NORTHERN WYOMING

CITY           SKY/WX    TMP DP  RH WIND       PRES   REMARKS
JACKSON        SUNNY     46  28  49 S23G30    29.93F
CODY           PTSUNNY   55  23  28 W9        29.78R
GREYBULL       MOCLDY    65  21  18 NW22      29.72R
WORLAND        MOCLDY    63  28  26 N5        29.73R
SHERIDAN         N/A     52  34  50 NW15G22     N/A
BUFFALO        MOCLDY    59  36  42 N9G24     29.71R
GILLETTE       CLOUDY    57  41  55 N6        29.73R
HULETT         MOCLDY    55  37  50 N9        29.73
NEWCASTLE      FAIR      64  36  34 NW9       29.69

$$
WYZ014>020-022>026-101>103-190200-
CENTRAL WYOMING

CITY           SKY/WX    TMP DP  RH WIND       PRES   REMARKS
BIG PINEY      PTSUNNY   52  18  26 W15       30.00R
PINEDALE       MOCLDY    46  28  49 N10G18    30.01R
DUBOIS         FAIR      45  14  29 W23G35    29.90S
LANDER         PTSUNNY   59  32  36 MISG      29.80R
RIVERTON       MOCLDY    60  16  18 W24G32    29.82R
CASPER         CLOUDY    61  32  33 W24G33    29.82R
DOUGLAS        MOCLDY    65  34  31 NW23G33   29.79R

$$
WYZ021-027>030-104>119-190200-
SOUTHERN WYOMING

CITY           SKY/WX    TMP DP  RH WIND       PRES   REMARKS
EVANSTON       MOSUNNY   54  30  40 W20       30.00S
KEMMERER       MOCLDY    48  34  57 W24       30.00S
FORT BRIDGER   CLOUDY    58  30  34 W21G26    30.03R
ROCK SPRINGS   CLOUDY    55  30  38 W8        29.98S
DIXON          MOCLDY    62  24  23 W8        29.96S
RAWLINS        CLOUDY    55  30  38 W26G33    29.94R
SARATOGA       FAIR      59  21  23 W9        29.96S
LARAMIE        CLOUDY    61  23  23 SW17      29.94R
CHEYENNE       CLOUDY    65  24  21 SW12      29.89R
TORRINGTON     CLOUDY    69  38  32 S16       29.72S
PINE BLUFFS    FAIR      66  30  26 S9        29.86S

$$



USA.gov is the U.S. government's official web portal to all federal, state and local government web resources and services.